Reading, PA

6:17 AM EDT on October 01, 2016 (GMT -0400)
Reading Regional-Spaatz

Weather History for KRDG - January, 2013

Change the Weather History Date:

Sunday, January 20, 2013

  Actual Average Record
Temperature  
Mean Temperature 40 °F 29 °F  
Max Temperature 53 °F 38 °F 68 °F (1951)
Min Temperature 27 °F 21 °F -11 °F (1994)
Degree Days  
Heating Degree Days 25 36  
Month to date heating degree days 553 705  
Since 1 July heating degree days 2390 2736  
Cooling Degree Days 0 0  
Month to date cooling degree days 0 0  
Year to date cooling degree days 0 0  
Moisture  
Dew Point 19 °F    
Average Humidity 43    
Maximum Humidity 64    
Minimum Humidity 21    
Precipitation  
Precipitation 0.00 in 0.09 in 1.06 in (1947)
Month to date precipitation 1.15 2.10  
Year to date precipitation 1.15 2.10  
Sea Level Pressure  
Sea Level Pressure 29.90 in    
Wind  
Wind Speed 12 mph (West)    
Max Wind Speed 30 mph    
Max Gust Speed 39 mph    
Visibility 10 miles    
Events      
T = Trace of Precipitation, MM = Missing Value Source: NWS Daily Summary

Daily Weather History Graph

Daily Weather History Graph

Search for Another Location

Airport or City:

Trip Planner

Search our weather history database for the weather conditions in past years. The results will help you decide how hot, cold, wet, or windy it might be!

Date:

Astronomy

Jan. 20, 2013 Rise Set
Actual Time 7:22 AM EST 5:08 PM EST
Civil Twilight 6:52 AM EST 5:37 PM EST
Nautical Twilight 6:19 AM EST 6:10 PM EST
Astronomical Twilight 5:46 AM EST 6:43 PM EST
Moon 12:07 PM EST (1/20) 1:52 AM EST (1/20)
Length of Visible Light 10h 45m
Length of Day
9h 45m
Waxing Gibbous, 66% of the Moon is Illuminated
Jan 20
Waxing Gibbous
Jan 26
Full
Feb 3
Last Quarter
Feb 10
New
Feb 17
First Quarter

Hourly Weather History & Observations

Time (EST) Temp. Windchill Dew Point Humidity Pressure Visibility Wind Dir Wind Speed Gust Speed Precip Events Conditions
1:54 AM 39.9 °F - 26.1 °F 58% 29.88 in 10.0 mi Calm Calm - N/A   Clear
3:54 AM 39.0 °F 35.7 °F 26.1 °F 60% 29.83 in 10.0 mi Variable 4.6 mph - N/A   Clear
4:54 AM 36.0 °F - 25.0 °F 64% 29.80 in 10.0 mi Calm Calm - N/A   Clear
5:54 AM 37.0 °F 30.4 °F 25.0 °F 62% 29.78 in 10.0 mi SW 9.2 mph - N/A   Clear
7:54 AM 39.0 °F 35.7 °F 26.1 °F 60% 29.78 in 10.0 mi SW 4.6 mph - N/A   Clear
8:54 AM 43.0 °F 36.8 °F 27.0 °F 53% 29.80 in 10.0 mi WSW 11.5 mph 16.1 mph N/A   Clear
9:54 AM 46.0 °F 39.6 °F 28.0 °F 50% 29.80 in 10.0 mi SW 15.0 mph 23.0 mph N/A   Clear
10:54 AM 48.0 °F - 28.9 °F 48% 29.80 in 10.0 mi WSW 15.0 mph 21.9 mph N/A   Clear
11:54 AM 51.1 °F - 28.9 °F 43% 29.78 in 10.0 mi West 19.6 mph 24.2 mph N/A   Mostly Cloudy
12:54 PM 52.0 °F - 19.9 °F 28% 29.78 in 10.0 mi West 26.5 mph 39.1 mph N/A   Clear
1:54 PM 51.1 °F - 14.0 °F 23% 29.81 in 10.0 mi WNW 19.6 mph 35.7 mph N/A   Clear
2:54 PM 50.0 °F - 12.9 °F 23% 29.86 in 10.0 mi WNW 20.7 mph 32.2 mph N/A   Clear
3:54 PM 46.9 °F - 12.9 °F 25% 29.90 in 10.0 mi West 20.7 mph 33.4 mph N/A   Clear
4:54 PM 42.1 °F 33.1 °F 14.0 °F 32% 29.94 in 10.0 mi WNW 20.7 mph 26.5 mph N/A   Clear
5:54 PM 37.0 °F 28.9 °F 16.0 °F 42% 29.99 in 10.0 mi NW 12.7 mph - N/A   Clear
6:54 PM 35.1 °F 25.9 °F 12.9 °F 40% 30.03 in 10.0 mi WNW 13.8 mph - N/A   Clear
7:54 PM 33.1 °F 24.4 °F 14.0 °F 46% 30.06 in 10.0 mi NW 11.5 mph - N/A   Clear
8:54 PM 30.9 °F 22.8 °F 12.9 °F 47% 30.08 in 10.0 mi WNW 9.2 mph - N/A   Clear
9:54 PM 30.0 °F 20.0 °F 12.0 °F 47% 30.09 in 10.0 mi NW 12.7 mph - N/A   Clear
10:54 PM 28.9 °F 16.1 °F 10.9 °F 47% 30.10 in 10.0 mi NW 19.6 mph 25.3 mph N/A   Clear
11:54 PM 27.0 °F 17.3 °F 10.9 °F 51% 30.10 in 10.0 mi WNW 10.4 mph - N/A   Clear